Regional Weather Roundup
Issued by NWS

Home | Current Version | Previous Version | Graphics & Text | Print | Product List | Glossary On
Versions: 1 2 3 4 5 6 7 8 9 10 11 12 13 14 15 16 17 18 19 20 21 22 23 24 25 26 27 28 29 30 31 32 33 34 35 36 37 38 39 40 41 42 43 44 45 46 47 48 49 50
496
ASUS44 KJAN 270303
RWRMS

MISSISSIPPI HOURLY WEATHER ROUNDUP
NATIONAL WEATHER SERVICE JACKSON MS
900 PM CST THU FEB 26 2015

NOTE: "FAIR: INDICATES FEW OR NO CLOUDS BELOW 12,000 FEET WITH NO
SIGNIFICANT WEATHER AND/OR OBSTRUCTIONS TO VISIBILITY.

MSZ001>002-007>008-010>013-018>021-025>028-034>036-270400-
NORTHWEST MISSISSIPPI

CITY           SKY/WX    TMP DP  RH WIND       PRES   REMARKS
CLARKSDALE     CLOUDY    32  25  74 N15       30.37F WCI  22
CLEVELAND      CLOUDY    32  26  79 N14       30.36S WCI  22
GREENWOOD        N/A    N/A N/A N/A MISG      30.35R
GREENVILLE     CLOUDY    33  26  75 N13       30.36R WCI  24
OLIVE BRANCH   CLOUDY    28  25  86 N15       30.37R WCI  17
OXFORD         CLOUDY    28  23  80 N9G16     30.35R WCI  20
TUNICA         CLOUDY    32  23  69 N15       30.39R WCI  22
$$

MSZ003>006-009-014>017-022>024-029>033-037>039-270400-
NORTHEAST MISSISSIPPI

CITY           SKY/WX    TMP DP  RH WIND       PRES   REMARKS
COLUMBUS AFB   NOT AVBL
CORINTH        CLOUDY    30  23  74 N17       30.32R WCI  18
GOLDN TRIANGLE CLEAR     34  28  80 NW7       30.28R WCI  28
STARKVILLE     CLOUDY    32  32 100 NW5       30.30R FOG     WCI  27
TUPELO         CLOUDY    32  25  75 N13G21    30.31R WCI  22
$$

MSZ040-058-270400-
CENTRAL MISSISSIPPI

CITY           SKY/WX    TMP DP  RH WIND       PRES   REMARKS
JACKSON INTL   CLOUDY    35  30  82 N12       30.32R WCI  27
JACKSON HAWKNS CLOUDY    35  29  78 N8        30.32R WCI  29
MERIDIAN KEY   CLEAR     34  29  82 NW10      30.27R WCI  26
MERIDIAN NAS   CLEAR     34  28  79 NW10      30.28R WCI  26
VICKSBURG      CLOUDY    35  28  75 N14       30.34S WCI  26
$$

MSZ059>079-270400-
SOUTH MISSISSIPPI

CITY           SKY/WX    TMP DP  RH WIND       PRES   REMARKS
BROOKHAVEN     CLOUDY    34  32  93 N13G18    30.31R WCI  25
HATTIESBURG    PTCLDY    40  33  76 N14G21    30.25R WCI  32
MCCOMB         CLEAR     36  29  75 N12G22    30.26R WCI  28
NATCHEZ        CLOUDY    36  28  75 N12G18    30.32R WCI  27
PINE BELT      CLEAR     36  28  75 N15G22    30.26R WCI  26
$$

MSZ080>082-270400-
COASTAL MISSISSIPPI

CITY           SKY/WX    TMP DP  RH WIND       PRES   REMARKS
BILOXI         NOT AVBL
PASCAGOULA     CLOUDY    43  35  73 N3        30.20R
GULFPORT       CLOUDY    43  33  68 N8        30.21R
$$



USA.gov is the U.S. government's official web portal to all federal, state and local government web resources and services.